Regional Weather Roundup
Issued by NWS

Home | Current Version | Previous Version | Text Only | Print | Product List | Glossary On
Versions: 1 2 3 4 5 6 7 8 9 10 11 12 13 14 15 16 17 18 19 20 21 22 23 24 25 26 27 28 29 30 31 32 33 34 35 36 37 38 39 40 41 42 43 44 45 46 47 48 49 50
000
ASUS46 KSEW 021210
RWRWA

WASHINGTON REGIONAL WEATHER ROUNDUP
NATIONAL WEATHER SERVICE SEATTLE WA
500 AM PDT THU JUL 02 2015

NOTE:"FAIR" INDICATES FEW OR NO CLOUDS BELOW 12,000 FEET WITH NO
SIGNIFICANT WEATHER AND/OR OBSTRUCTIONS TO VISIBILITY.

WAZ505-507>509-021300-
SEATTLE, TACOMA, EVERETT, AND VICINITY

CITY           SKY/WX    TMP DP  RH WIND       PRES   REMARKS
EVERETT        CLEAR     67  52  58 CALM      30.01S
6HR MIN TEMP:  65; 6HR MAX TEMP:  71;

BOEING FIELD   CLEAR     68  53  58 CALM      29.99R
6HR MIN TEMP:  68; 6HR MAX TEMP:  79;

RENTON         CLEAR     64  57  78 CALM      29.99R
6HR MIN TEMP:  64; 6HR MAX TEMP:  76;

SEATAC AIRPORT CLEAR     68  54  60 CALM      30.01R
6HR MIN TEMP:  67; 6HR MAX TEMP:  77;

JBLM-MCCHORD   CLEAR     58  56  96 S3        30.00R
6HR MIN TEMP:  56; 6HR MAX TEMP:  73;

PUYALLUP       NOT AVBL
BREMERTON      CLEAR     57  52  82 CALM      30.02F
6HR MIN TEMP:  55; 6HR MAX TEMP:  72;

JBLM-FT LEWIS  CLEAR     58  55  90 SE5       29.99S
6HR MIN TEMP:  57; 6HR MAX TEMP:  74; 6HR PCP: TRACE;

TACOMA NARROWS CLEAR     64  54  69 SE3       30.00S
6HR MIN TEMP:  63; 6HR MAX TEMP:  75;

$$

WAZ001-503-506-510-514-515-021300-
NORTH INTERIOR

CITY           SKY/WX    TMP DP  RH WIND       PRES   REMARKS
BELLINGHAM     CLEAR     62  60  93 CALM      29.99R
6HR MIN TEMP:  62; 6HR MAX TEMP:  67;

FRIDAY HARBOR  CLEAR     56  52  86 CALM      30.00S
6HR MIN TEMP:  54; 6HR MAX TEMP:  60;

EASTSOUND      CLEAR     66  57  72 N5        29.99R
PORT ANGELES   CLEAR     57  52  83 CALM      30.00R
6HR MIN TEMP:  57; 6HR MAX TEMP:  69;

PORT TOWNSEND  FAIR      54  52  94 CALM      30.00R
NAS WHIDBEY    PTCLDY    56  51  84 N3        30.03R
6HR MIN TEMP:  56; 6HR MAX TEMP:  63;

ARLINGTON      CLEAR     57  50  77 SW3       30.01S
6HR MIN TEMP:  55; 6HR MAX TEMP:  68;

BURLINGTON     CLEAR     63  57  82 NW5       29.99
$$

WAZ020-022-039-040-504-511-512-021300-
SOUTHWEST INTERIOR

CITY           SKY/WX    TMP DP  RH WIND       PRES   REMARKS
SHELTON        CLEAR     60  55  83 NW3       29.98R
6HR MIN TEMP:  58; 6HR MAX TEMP:  68;

OLYMPIA        CLEAR     56  53  90 CALM      30.00R
6HR MIN TEMP:  56; 6HR MAX TEMP:  69;

CHEHALIS       FAIR      59  59 100 CALM      29.99S FOG
KELSO          CLEAR     63  55  77 N5        30.03R
6HR MIN TEMP:  63; 6HR MAX TEMP:  75;

VANCOUVER      CLEAR     63  54  72 CALM      29.96R
6HR MIN TEMP:  62; 6HR MAX TEMP:  79;

SCAPPOOSE, OR  CLEAR     60  55  83 CALM      29.96R
6HR MIN TEMP:  59; 6HR MAX TEMP:  78;

PORTLAND, OR   CLEAR     69  57  65 N5        29.97R
6HR MIN TEMP:  67; 6HR MAX TEMP:  80;

$$

WAZ021-516-517-021300-
WASHINGTON COAST

CITY           SKY/WX    TMP DP  RH WIND       PRES   REMARKS
FORKS          CLEAR     52  51  97 CALM      30.01R
6HR MIN TEMP:  52; 6HR MAX TEMP:  64;

HOQUIAM        PTCLDY    57  55  93 S5        30.01R FOG
6HR MIN TEMP:  56; 6HR MAX TEMP:  63;

ASTORIA, OR    CLOUDY    58  56  93 SW5       30.01S FOG
6HR MIN TEMP:  56; 6HR MAX TEMP:  58;

$$

WAZ019-023-024-040-518-519-021300-
CASCADE MOUNTAINS AND COLUMBIA GORGE

CITY           SKY/WX    TMP DP  RH WIND       PRES   REMARKS
TROUTDALE, OR  CLEAR     63  57  81 CALM      29.95S
6HR MIN TEMP:  61; 6HR MAX TEMP:  80;

THE DALLES, OR CLEAR     75  57  53 NW14      29.91R
6HR MIN TEMP:  74; 6HR MAX TEMP:  87;

$$

WAZ026-027-041>044-520-521-021300-
EAST SLOPES

CITY           SKY/WX    TMP DP  RH WIND       PRES   REMARKS
OMAK           CLEAR     69  47  45 N10       30.01S
6HR MIN TEMP:  68; 6HR MAX TEMP:  79;

WENATCHEE      CLEAR     75  50  41 NW10      29.98S
6HR MIN TEMP:  75; 6HR MAX TEMP:  89;

ELLENSBURG     CLEAR     61  50  67 E3        30.00S
6HR MIN TEMP:  60; 6HR MAX TEMP:  81;

YAKIMA         CLEAR     66  52  60 MISG      29.96R
6HR MIN TEMP:  65; 6HR MAX TEMP:  83;

$$

WAZ028-034-035-021300-
COLUMBIA BASIN

CITY           SKY/WX    TMP DP  RH WIND       PRES   REMARKS
EPHRATA        CLEAR     78  47  33 NW14      29.96S
6HR MIN TEMP:  76; 6HR MAX TEMP:  85;

MOSES LAKE     CLEAR     69  49  48 CALM      29.96S
6HR MIN TEMP:  68; 6HR MAX TEMP:  82;

PASCO          CLEAR     62  59  90 NW3       29.91S
6HR MIN TEMP:  61; 6HR MAX TEMP:  76;

HERMISTON, OR  CLEAR     61  47  59 SE5       29.90S
6HR MIN TEMP:  60; 6HR MAX TEMP:  75;

$$

WAZ036>038-021300-
NORTHEAST WASHINGTON

CITY           SKY/WX    TMP DP  RH WIND       PRES   REMARKS
SPOKANE GEIGER PTCLDY    67  46  47 CALM      30.01S
6HR MIN TEMP:  66; 6HR MAX TEMP:  81;

SPOKANE FELTS  CLEAR     64  51  62 NE5       30.01R
6HR MIN TEMP:  63; 6HR MAX TEMP:  77;

FAIRCHILD AFB  CLEAR     63  46  54 N2        30.02R
6HR MIN TEMP:  62; 6HR MAX TEMP:  73;

COEURDALENE,ID CLEAR     61  48  63 NE6       30.02S
6HR MIN TEMP:  59; 6HR MAX TEMP:  73;

DEER PARK      CLEAR     57  48  72 MISG      30.02R
6HR MIN TEMP:  55; 6HR MAX TEMP:  68;

$$

WAZ029>033-021300-
SOUTHEAST WASHINGTON

CITY           SKY/WX    TMP DP  RH WIND       PRES   REMARKS
PULLMAN        CLEAR     54  46  74 CALM      30.03S
6HR MIN TEMP:  52; 6HR MAX TEMP:  63;

LEWISTON, ID   CLEAR     68  45  43 CALM      29.96S
6HR MIN TEMP:  68; 6HR MAX TEMP:  84;

WALLA WALLA    CLEAR     73  46  38 SE5       29.93S
6HR MIN TEMP:  68; 6HR MAX TEMP:  80;

PENDLETON, OR  CLEAR     63  43  48 E10       29.94S
6HR MIN TEMP:  62; 6HR MAX TEMP:  75;

$$



USA.gov is the U.S. government's official web portal to all federal, state and local government web resources and services.